| time (UTC) | temp C | wind direction | speed KPH | gust KPH | rain 1hr cm | rain 24hr cm | rain mn cm | humidity % | barometer mb |
| 20260506123502 | 23 | 260 | 9.7 | 14.5 | 0.00 | 0.00 | 0.00 | 59 | 1005.8 |
| 20260506123101 | 23 | 261 | 11.3 | 14.5 | 0.00 | 0.00 | 0.00 | 57 | 1005.7 |
| 20260506122519 | 23 | 260 | 11.3 | 14.5 | 0.00 | 0.00 | 0.00 | 58 | 1005.7 |
| 20260506122059 | 23 | 261 | 11.3 | 14.5 | 0.00 | 0.00 | 0.00 | 57 | 1005.6 |
| 20260506121602 | 23 | 256 | 11.3 | 14.5 | 0.00 | 0.00 | 0.00 | 55 | 1005.6 |
| 20260506121058 | 23 | 266 | 11.3 | 12.9 | 0.00 | 0.00 | 0.00 | 55 | 1005.5 |
| 20260506120557 | 23 | 0.0 | 0.0 | 0.00 | 0.00 | 0.00 | 54 | 1005.5 | |
| 20260506120059 | 23 | 0.0 | 0.0 | 0.00 | 0.00 | 0.00 | 54 | 1005.3 | |
| 20260506114542 | 23 | 250 | 9.7 | 14.5 | 0.00 | 0.00 | 0.00 | 53 | 1005.2 |
| 20260506114040 | 23 | 265 | 9.7 | 11.3 | 0.00 | 0.00 | 0.00 | 54 | 1005.2 |
| 20260506113543 | 23 | 269 | 8.0 | 14.5 | 0.00 | 0.00 | 0.00 | 53 | 1005.0 |
| 20260506113040 | 23 | 272 | 8.0 | 14.5 | 0.00 | 0.00 | 0.00 | 52 | 1005.0 |
| 20260506112540 | 23 | 270 | 11.3 | 16.1 | 0.00 | 0.00 | 0.00 | 52 | 1005.1 |
| 20260506112039 | 23 | 266 | 12.9 | 17.7 | 0.00 | 0.00 | 0.00 | 52 | 1005.0 |
| 20260506111540 | 23 | 268 | 12.9 | 16.1 | 0.00 | 0.00 | 0.00 | 51 | 1005.0 |
| 20260506111038 | 23 | 263 | 12.9 | 16.1 | 0.00 | 0.00 | 0.00 | 51 | 1005.1 |
| 20260506110539 | 23 | 252 | 12.9 | 17.7 | 0.00 | 0.00 | 0.00 | 51 | 1005.0 |
| 20260506110041 | 23 | 0.0 | 0.0 | 0.00 | 0.00 | 0.00 | 52 | 1005.0 | |
| 20260506104504 | 23 | 250 | 6.4 | 16.1 | 0.00 | 0.00 | 0.00 | 52 | 1004.9 |
| 20260506104003 | 23 | 227 | 9.7 | 16.1 | 0.00 | 0.00 | 0.00 | 52 | 1004.9 |
| 20260506103503 | 23 | 223 | 9.7 | 14.5 | 0.00 | 0.00 | 0.00 | 52 | 1004.9 |
| 20260506103003 | 23 | 242 | 9.7 | 14.5 | 0.00 | 0.00 | 0.00 | 55 | 1004.9 |
| 20260506102502 | 23 | 246 | 6.4 | 12.9 | 0.00 | 0.00 | 0.00 | 61 | 1004.8 |
| 20260506102002 | 23 | 255 | 6.4 | 12.9 | 0.00 | 0.00 | 0.00 | 59 | 1004.8 |
| 20260506101606 | 23 | 250 | 9.7 | 14.5 | 0.00 | 0.00 | 0.00 | 57 | 1004.8 |
| 20260506101100 | 23 | 241 | 9.7 | 14.5 | 0.00 | 0.00 | 0.00 | 53 | 1004.7 |
| 20260506100559 | 23 | 235 | 9.7 | 12.9 | 0.00 | 0.00 | 0.00 | 54 | 1004.7 |
| 20260506100502 | 23 | 237 | 9.7 | 12.9 | 0.00 | 0.00 | 0.00 | 57 | 1004.7 |
| 20260506100058 | 23 | 0.0 | 0.0 | 0.00 | 0.00 | 0.00 | 58 | 1004.6 | |
| 20260506094526 | 23 | 252 | 4.8 | 8.0 | 0.00 | 0.00 | 0.00 | 58 | 1004.7 |
| 20260506094024 | 23 | 238 | 6.4 | 8.0 | 0.00 | 0.00 | 0.00 | 63 | 1004.7 |
| 20260506093523 | 23 | 300 | 0.0 | 6.4 | 0.00 | 0.00 | 0.00 | 64 | 1004.6 |
| 20260506093023 | 23 | 293 | 1.6 | 6.4 | 0.00 | 0.00 | 0.00 | 63 | 1004.7 |
| 20260506092522 | 23 | 274 | 3.2 | 8.0 | 0.00 | 0.00 | 0.00 | 62 | 1004.7 |
| 20260506092021 | -17 | 0.0 | 0.0 | 0.00 | 0.00 | 0.00 | 1004.8 | ||
| 20260506091521 | -17 | 0.0 | 0.0 | 0.00 | 0.00 | 0.00 | 1004.6 | ||
| 20260506091018 | -17 | 0.0 | 0.0 | 0.00 | 0.00 | 0.00 | 1004.7 | ||
| 20260506090517 | -17 | 0.0 | 0.0 | 0.00 | 0.00 | 0.00 | 1004.6 | ||
| 20260506090015 | -17 | 0.0 | 0.0 | 0.00 | 0.00 | 0.00 | 1004.7 | ||
| 20260506085617 | -17 | 0.0 | 0.0 | 0.00 | 0.00 | 0.00 | 1004.7 | ||
| 20260506084049 | -17 | 0.0 | 0.0 | 0.00 | 0.00 | 0.00 | 1004.6 | ||
| 20260506083548 | -17 | 0.0 | 0.0 | 0.00 | 0.00 | 0.00 | 1004.6 | ||
| 20260506083047 | -17 | 0.0 | 0.0 | 0.00 | 0.00 | 0.00 | 1004.7 | ||
| 20260506082547 | -17 | 0.0 | 0.0 | 0.00 | 0.00 | 0.00 | 1004.7 | ||
| 20260506082047 | -17 | 0.0 | 0.0 | 0.00 | 0.00 | 0.00 | 1004.7 | ||
| 20260506081542 | -17 | 0.0 | 0.0 | 0.00 | 0.00 | 0.00 | 1004.7 | ||
| 20260506081041 | -17 | 0.0 | 0.0 | 0.00 | 0.00 | 0.00 | 1004.8 | ||
| 20260506080539 | -17 | 0.0 | 0.0 | 0.00 | 0.00 | 0.00 | 1004.8 | ||
| 20260506073503 | -17 | 0.0 | 0.0 | 0.00 | 0.00 | 0.00 | 1004.9 | ||
| 20260506073002 | -17 | 0.0 | 0.0 | 0.00 | 0.00 | 0.00 | 1005.0 | ||
| 20260506072504 | -17 | 0.0 | 0.0 | 0.00 | 0.00 | 0.00 | 1005.0 | ||
| 20260506072100 | -17 | 0.0 | 0.0 | 0.00 | 0.00 | 0.00 | 1004.9 | ||
| 20260506071611 | -17 | 0.0 | 0.0 | 0.00 | 0.00 | 0.00 | 1004.6 | ||
| 20260506071059 | -17 | 0.0 | 0.0 | 0.00 | 0.00 | 0.00 | 1004.5 | ||
| 20260506070555 | -17 | 0.0 | 0.0 | 0.00 | 0.00 | 0.00 | 1004.6 | ||
| 20260506062030 | -17 | 0.0 | 0.0 | 0.00 | 0.00 | 0.00 | 1004.9 | ||
| 20260506061529 | -17 | 0.0 | 0.0 | 0.00 | 0.00 | 0.00 | 1004.9 | ||
| 20260506061027 | -17 | 0.0 | 0.0 | 0.00 | 0.00 | 0.00 | 1005.0 | ||
| 20260506060529 | 27 | 0.0 | 0.0 | 0.00 | 0.00 | 0.00 | 37 | 1005.0 | |
| 20260506051038 | 27 | 55 | 1.6 | 9.7 | 0.00 | 0.00 | 0.00 | 33 | 1005.2 |
| 20260506050537 | 27 | 56 | 1.6 | 9.7 | 0.00 | 0.00 | 0.00 | 29 | 1005.3 |
| 20260506044019 | 28 | 39 | 9.7 | 16.1 | 0.00 | 0.00 | 0.00 | 27 | 1005.2 |
| 20260506043512 | 28 | 40 | 8.0 | 14.5 | 0.00 | 0.00 | 0.00 | 24 | 1005.2 |
| 20260506043011 | 28 | 44 | 8.0 | 17.7 | 0.00 | 0.00 | 0.00 | 23 | 1005.1 |
| 20260506042511 | 28 | 30 | 9.7 | 17.7 | 0.00 | 0.00 | 0.00 | 23 | 1005.0 |
| 20260506042019 | 28 | 26 | 11.3 | 17.7 | 0.00 | 0.00 | 0.00 | 23 | 1005.1 |
| 20260506041524 | 28 | 16 | 11.3 | 17.7 | 0.00 | 0.00 | 0.00 | 23 | 1004.9 |
| 20260506041012 | 28 | 10 | 12.9 | 22.5 | 0.00 | 0.00 | 0.00 | 22 | 1004.9 |
| 20260506040612 | 28 | 13 | 14.5 | 22.5 | 0.00 | 0.00 | 0.00 | 22 | 1004.9 |
| 20260506040110 | 29 | 0.0 | 0.0 | 0.00 | 0.00 | 0.00 | 21 | 1004.8 | |
| 20260506034031 | 29 | 3 | 11.3 | 22.5 | 0.00 | 0.00 | 0.00 | 21 | 1004.8 |
| 20260506033527 | 29 | 11 | 16.1 | 22.5 | 0.00 | 0.00 | 0.00 | 20 | 1004.6 |
| 20260506033030 | 30 | 15 | 11.3 | 20.9 | 0.00 | 0.00 | 0.00 | 21 | 1004.5 |
| 20260506032527 | 30 | 37 | 9.7 | 22.5 | 0.00 | 0.00 | 0.00 | 20 | 1004.5 |
| 20260506032025 | 30 | 15 | 16.1 | 22.5 | 0.00 | 0.00 | 0.00 | 20 | 1004.5 |
| 20260506031527 | 30 | 22 | 16.1 | 24.1 | 0.00 | 0.00 | 0.00 | 20 | 1004.5 |
| 20260506031027 | 30 | 24 | 17.7 | 25.7 | 0.00 | 0.00 | 0.00 | 20 | 1004.5 |
| 20260506030525 | 30 | 21 | 16.1 | 27.4 | 0.00 | 0.00 | 0.00 | 20 | 1004.4 |
| 20260506030026 | 30 | 24 | 17.7 | 25.7 | 0.00 | 0.00 | 0.00 | 20 | 1004.4 |
| 20260506025624 | 31 | 27 | 19.3 | 24.1 | 0.00 | 0.00 | 0.00 | 19 | 1004.3 |
| 20260506024058 | 31 | 34 | 17.7 | 25.7 | 0.00 | 0.00 | 0.00 | 20 | 1004.0 |
| 20260506023556 | 31 | 29 | 17.7 | 30.6 | 0.00 | 0.00 | 0.00 | 21 | 1004.0 |
| 20260506023100 | 31 | 19 | 20.9 | 30.6 | 0.00 | 0.00 | 0.00 | 21 | 1003.9 |
| 20260506022556 | 31 | 27 | 22.5 | 30.6 | 0.00 | 0.00 | 0.00 | 21 | 1003.7 |
| 20260506022056 | 31 | 19 | 17.7 | 35.4 | 0.00 | 0.00 | 0.00 | 21 | 1003.8 |
| 20260506021558 | 31 | 38 | 20.9 | 35.4 | 0.00 | 0.00 | 0.00 | 21 | 1003.5 |
| 20260506021058 | 31 | 17 | 20.9 | 35.4 | 0.00 | 0.00 | 0.00 | 21 | 1003.2 |
| 20260506020555 | 31 | 11 | 20.9 | 33.8 | 0.00 | 0.00 | 0.00 | 22 | 1003.3 |
| 20260506020055 | 31 | 21 | 24.1 | 32.2 | 0.00 | 0.00 | 0.00 | 22 | 1003.2 |
| 20260506015655 | 32 | 58 | 14.5 | 33.8 | 0.00 | 0.00 | 0.00 | 21 | 1003.3 |
| 20260506014033 | 32 | 44 | 24.1 | 33.8 | 0.00 | 0.00 | 0.00 | 20 | 1003.3 |
| 20260506013534 | 32 | 42 | 9.7 | 17.7 | 0.00 | 0.00 | 0.00 | 24 | 1002.9 |
| 20260506013036 | 32 | 16 | 6.4 | 19.3 | 0.00 | 0.00 | 0.00 | 29 | 1002.7 |
| 20260506012532 | 33 | 117 | 9.7 | 19.3 | 0.00 | 0.00 | 0.00 | 28 | 1002.3 |
| 20260506012035 | 33 | 128 | 11.3 | 17.7 | 0.00 | 0.00 | 0.00 | 26 | 1002.1 |
| 20260506011538 | 33 | 122 | 6.4 | 14.5 | 0.00 | 0.00 | 0.00 | 24 | 1001.9 |
| 20260506011031 | 33 | 131 | 9.7 | 16.1 | 0.00 | 0.00 | 0.00 | 24 | 1001.7 |
| 20260506010532 | 33 | 142 | 9.7 | 16.1 | 0.00 | 0.00 | 0.00 | 23 | 1001.7 |
| 20260506010032 | 34 | 0.0 | 0.0 | 0.00 | 0.00 | 0.00 | 22 | 1001.5 | |
| 20260506005535 | 34 | 131 | 8.0 | 17.7 | 0.00 | 0.00 | 0.00 | 22 | 1001.4 |
| 20260506004010 | 34 | 152 | 8.0 | 17.7 | 0.00 | 0.00 | 0.00 | 22 | 1001.2 |
| 20260506003510 | 34 | 129 | 11.3 | 17.7 | 0.00 | 0.00 | 0.00 | 22 | 1001.2 |
| 20260506003010 | 34 | 122 | 11.3 | 17.7 | 0.00 | 0.00 | 0.00 | 22 | 1001.3 |
| 20260506002511 | 34 | 130 | 6.4 | 17.7 | 0.00 | 0.00 | 0.00 | 22 | 1001.2 |
| 20260506002009 | 34 | 135 | 11.3 | 17.7 | 0.00 | 0.00 | 0.00 | 22 | 1001.2 |
| 20260506001509 | 34 | 131 | 9.7 | 17.7 | 0.00 | 0.00 | 0.00 | 22 | 1001.2 |
| 20260506001009 | 35 | 135 | 12.9 | 19.3 | 0.00 | 0.00 | 0.00 | 22 | 1001.3 |
| 20260506000508 | 35 | 143 | 14.5 | 19.3 | 0.00 | 0.00 | 0.00 | 22 | 1001.2 |
| 20260505234001 | 35 | 140 | 12.9 | 20.9 | 0.00 | 0.00 | 0.00 | 22 | 1001.0 |
| 20260505233500 | 35 | 133 | 16.1 | 20.9 | 0.00 | 0.00 | 0.00 | 22 | 1001.0 |
| 20260505233104 | 35 | 148 | 12.9 | 22.5 | 0.00 | 0.00 | 0.00 | 22 | 1001.1 |
| 20260505232600 | 35 | 153 | 14.5 | 22.5 | 0.00 | 0.00 | 0.00 | 22 | 1001.1 |
| 20260505232059 | 35 | 129 | 14.5 | 20.9 | 0.00 | 0.00 | 0.00 | 22 | 1001.0 |
| 20260505231559 | 35 | 146 | 12.9 | 20.9 | 0.00 | 0.00 | 0.00 | 22 | 1001.1 |
| 20260505231058 | 35 | 116 | 9.7 | 25.7 | 0.00 | 0.00 | 0.00 | 21 | 1001.1 |
| 20260505230600 | 35 | 142 | 9.7 | 25.7 | 0.00 | 0.00 | 0.00 | 21 | 1001.2 |
| 20260505230116 | 36 | 0.0 | 0.0 | 0.00 | 0.00 | 0.00 | 21 | 1001.3 | |
| 20260505225656 | 36 | 171 | 8.0 | 20.9 | 0.00 | 0.00 | 0.00 | 21 | 1001.4 |
| 20260505224036 | 36 | 140 | 16.1 | 20.9 | 0.00 | 0.00 | 0.00 | 21 | 1001.5 |
| 20260505223538 | 36 | 90 | 11.3 | 17.7 | 0.00 | 0.00 | 0.00 | 21 | 1001.6 |
| 20260505223041 | 36 | 95 | 8.0 | 17.7 | 0.00 | 0.00 | 0.00 | 20 | 1001.6 |
| 20260505222534 | 36 | 138 | 4.8 | 12.9 | 0.00 | 0.00 | 0.00 | 20 | 1001.7 |
| 20260505222033 | 36 | 294 | 3.2 | 11.3 | 0.00 | 0.00 | 0.00 | 20 | 1001.5 |
| 20260505221531 | 36 | 181 | 6.4 | 16.1 | 0.00 | 0.00 | 0.00 | 20 | 1001.7 |
| 20260505221031 | 36 | 147 | 9.7 | 16.1 | 0.00 | 0.00 | 0.00 | 20 | 1001.6 |
| 20260505220530 | 36 | 127 | 8.0 | 16.1 | 0.00 | 0.00 | 0.00 | 21 | 1001.6 |
| 20260505220037 | 36 | 84 | 3.2 | 3.2 | 0.00 | 0.00 | 0.00 | 21 | 1001.8 |
| 20260505215628 | 36 | 131 | 9.7 | 17.7 | 0.00 | 0.00 | 0.00 | 21 | 1002.0 |
| 20260505214034 | 36 | 116 | 11.3 | 17.7 | 0.00 | 0.00 | 0.00 | 20 | 1002.2 |
| 20260505213533 | 36 | 148 | 3.2 | 12.9 | 0.00 | 0.00 | 0.00 | 21 | 1002.2 |
| 20260505213050 | 36 | 8 | 0.0 | 11.3 | 0.00 | 0.00 | 0.00 | 21 | 1002.3 |
| 20260505212532 | 36 | 40 | 4.8 | 12.9 | 0.00 | 0.00 | 0.00 | 21 | 1002.5 |
| 20260505212031 | 36 | 298 | 4.8 | 16.1 | 0.00 | 0.00 | 0.00 | 21 | 1002.6 |
| 20260505211531 | 36 | 300 | 4.8 | 16.1 | 0.00 | 0.00 | 0.00 | 21 | 1002.5 |
| 20260505211030 | 36 | 319 | 4.8 | 17.7 | 0.00 | 0.00 | 0.00 | 21 | 1002.9 |
| 20260505210528 | 36 | 27 | 6.4 | 17.7 | 0.00 | 0.00 | 0.00 | 21 | 1002.9 |
| 20260505210030 | 35 | 139 | 1.6 | 17.7 | 0.00 | 0.00 | 0.00 | 22 | 1003.0 |
| 20260505205626 | 35 | 118 | 4.8 | 16.1 | 0.00 | 0.00 | 0.00 | 21 | 1003.0 |
| 20260505204006 | 35 | 140 | 4.8 | 16.1 | 0.00 | 0.00 | 0.00 | 21 | 1003.4 |
| 20260505203505 | 35 | 165 | 4.8 | 19.3 | 0.00 | 0.00 | 0.00 | 21 | 1003.4 |
| 20260505203004 | 36 | 125 | 9.7 | 19.3 | 0.00 | 0.00 | 0.00 | 21 | 1003.6 |
| 20260505202503 | 35 | 120 | 3.2 | 22.5 | 0.00 | 0.00 | 0.00 | 21 | 1003.7 |
| 20260505202003 | 35 | 128 | 8.0 | 22.5 | 0.00 | 0.00 | 0.00 | 21 | 1003.7 |
| 20260505201501 | 35 | 211 | 4.8 | 14.5 | 0.00 | 0.00 | 0.00 | 22 | 1003.7 |
| 20260505201100 | 35 | 149 | 1.6 | 12.9 | 0.00 | 0.00 | 0.00 | 22 | 1003.8 |
| 20260505200600 | 35 | 40 | 6.4 | 17.7 | 0.00 | 0.00 | 0.00 | 22 | 1003.9 |
| 20260505200100 | 35 | 127 | 14.5 | 17.7 | 0.00 | 0.00 | 0.00 | 22 | 1004.0 |
| 20260505195558 | 35 | 79 | 1.6 | 16.1 | 0.00 | 0.00 | 0.00 | 22 | 1003.9 |
| 20260505194034 | 35 | 313 | 1.6 | 16.1 | 0.00 | 0.00 | 0.00 | 22 | 1004.0 |
| 20260505193534 | 35 | 16 | 4.8 | 16.1 | 0.00 | 0.00 | 0.00 | 23 | 1004.1 |
| 20260505193044 | 34 | 14 | 8.0 | 16.1 | 0.00 | 0.00 | 0.00 | 24 | 1004.2 |
| 20260505192531 | 34 | 148 | 4.8 | 14.5 | 0.00 | 0.00 | 0.00 | 24 | 1004.2 |
| 20260505192031 | 33 | 127 | 3.2 | 16.1 | 0.00 | 0.00 | 0.00 | 25 | 1004.2 |
| 20260505191531 | 33 | 356 | 11.3 | 16.1 | 0.00 | 0.00 | 0.00 | 25 | 1004.2 |
| 20260505191030 | 33 | 121 | 4.8 | 16.1 | 0.00 | 0.00 | 0.00 | 26 | 1004.2 |
| 20260505190529 | 34 | 52 | 6.4 | 16.1 | 0.00 | 0.00 | 0.00 | 25 | 1004.5 |
| 20260505190035 | 32 | 41 | 3.2 | 8.0 | 0.00 | 0.00 | 0.00 | 31 | 1004.7 |
| 20260505185627 | 32 | 349 | 6.4 | 17.7 | 0.00 | 0.00 | 0.00 | 31 | 1004.6 |
| 20260505184039 | 33 | 44 | 12.9 | 17.7 | 0.00 | 0.00 | 0.00 | 31 | 1004.9 |
| 20260505183542 | 32 | 34 | 3.2 | 12.9 | 0.00 | 0.00 | 0.00 | 32 | 1004.9 |
| 20260505183048 | 32 | 63 | 6.4 | 14.5 | 0.00 | 0.00 | 0.00 | 33 | 1005.0 |
| 20260505182537 | 32 | 123 | 8.0 | 14.5 | 0.00 | 0.00 | 0.00 | 36 | 1005.1 |
| 20260505182035 | 32 | 208 | 3.2 | 12.9 | 0.00 | 0.00 | 0.00 | 36 | 1005.2 |
| 20260505181534 | 32 | 141 | 6.4 | 14.5 | 0.00 | 0.00 | 0.00 | 36 | 1005.2 |
| 20260505181036 | 31 | 119 | 1.6 | 14.5 | 0.00 | 0.00 | 0.00 | 38 | 1005.4 |
| 20260505180535 | 31 | 123 | 8.0 | 14.5 | 0.00 | 0.00 | 0.00 | 39 | 1005.5 |
| 20260505180037 | 31 | 326 | 1.6 | 16.1 | 0.00 | 0.00 | 0.00 | 39 | 1005.7 |
| 20260505175533 | 30 | 33 | 6.4 | 14.5 | 0.00 | 0.00 | 0.00 | 43 | 1005.7 |
| 20260505174054 | 30 | 21 | 9.7 | 17.7 | 0.00 | 0.00 | 0.00 | 44 | 1005.9 |
| 20260505173553 | 30 | 138 | 3.2 | 17.7 | 0.00 | 0.00 | 0.00 | 44 | 1005.9 |
| 20260505173052 | 30 | 123 | 8.0 | 14.5 | 0.00 | 0.00 | 0.00 | 45 | 1006.0 |
| 20260505172550 | 29 | 133 | 4.8 | 16.1 | 0.00 | 0.00 | 0.00 | 47 | 1006.0 |
| 20260505172050 | 29 | 137 | 4.8 | 17.7 | 0.00 | 0.00 | 0.00 | 47 | 1006.0 |
| 20260505171549 | 29 | 126 | 11.3 | 17.7 | 0.00 | 0.00 | 0.00 | 49 | 1006.0 |
| 20260505171051 | 29 | 139 | 1.6 | 14.5 | 0.00 | 0.00 | 0.00 | 50 | 1006.0 |
| 20260505170550 | 28 | 95 | 4.8 | 17.7 | 0.00 | 0.00 | 0.00 | 51 | 1006.0 |
| 20260505170053 | 28 | 148 | 9.7 | 17.7 | 0.00 | 0.00 | 0.00 | 54 | 1006.0 |
| 20260505165545 | 28 | 31 | 0.0 | 9.7 | 0.00 | 0.00 | 0.00 | 54 | 1006.0 |
| 20260505164055 | 28 | 315 | 1.6 | 9.7 | 0.00 | 0.00 | 0.00 | 53 | 1006.0 |
| 20260505163557 | 28 | 27 | 6.4 | 11.3 | 0.00 | 0.00 | 0.00 | 53 | 1006.1 |
| 20260505163059 | 28 | 75 | 4.8 | 9.7 | 0.00 | 0.00 | 0.00 | 54 | 1006.1 |
| 20260505162553 | 28 | 95 | 1.6 | 9.7 | 0.00 | 0.00 | 0.00 | 55 | 1006.2 |
| 20260505162053 | 28 | 135 | 4.8 | 9.7 | 0.00 | 0.00 | 0.00 | 55 | 1006.2 |
| 20260505161552 | 27 | 139 | 1.6 | 8.0 | 0.00 | 0.00 | 0.00 | 57 | 1006.1 |
| 20260505161051 | 27 | 337 | 0.0 | 3.2 | 0.00 | 0.00 | 0.00 | 58 | 1006.1 |
| 20260505160552 | 27 | 95 | 0.0 | 9.7 | 0.00 | 0.00 | 0.00 | 59 | 1006.2 |
| 20260505153029 | 25 | 110 | 0.0 | 8.0 | 0.00 | 0.00 | 0.00 | 63 | 1006.4 |
| 20260505152527 | 25 | 49 | 3.2 | 8.0 | 0.00 | 0.00 | 0.00 | 63 | 1006.5 |
| 20260505152028 | 25 | 90 | 0.0 | 8.0 | 0.00 | 0.00 | 0.00 | 63 | 1006.4 |
| 20260505151524 | 25 | 44 | 1.6 | 8.0 | 0.00 | 0.00 | 0.00 | 63 | 1006.4 |
| 20260505151023 | 25 | 48 | 0.0 | 6.4 | 0.00 | 0.00 | 0.00 | 64 | 1006.5 |
| 20260505150523 | 25 | 95 | 0.0 | 0.0 | 0.00 | 0.00 | 0.00 | 65 | 1006.4 |
| 20260505140538 | 22 | 19 | 0.0 | 0.0 | 0.00 | 0.00 | 0.00 | 73 | 1006.1 |
| 20260505124006 | 20 | 277 | 0.0 | 1.6 | 0.00 | 0.00 | 0.00 | 79 | 1005.2 |